Weather in Stepnoy

Russia / Volgograd Oblast     48°55′46″N   45°35′36″E
temp.,
°C
wind,
m/s
gust,
m/s
humid.,
%
clouds,
%
prec.,
mm/h
press.,
hPa
HPBL,
m
27 february, sat
sat2700:00+4wsw81698100 0.1 1011423
03:00+4wsw71694100 0.2 1011429
06:00+4w71495100 0.1 1009399
09:00+3w61296100 0.1 1009525
12:00+4w61288100 0.0 1008718
15:00+3w61284100 0.0 1008696
18:00+2w51287100 0.0 1008509
21:00+2w71387100 0.1 1009499
28 february, sun
sun2800:00+1w6138843 0.0 1009538
03:00−1nw6127951 0.0 1011743
06:00−4nnw69720 0.0 1012604
09:00−4nnw57680 0.0 1014610
12:00−2nw56600 0.0 1014707
15:00−1nnw46580 0.0 1015768
18:00−3nnw45640 0.0 1016657
21:00−4n456713 0.0 1018542
1 march, mon
mon100:00−5n34720 0.0 1019474
03:00−6n33729 0.0 1020442
06:00−7nnw237174 0.0 1022477
09:00−6nnw346876 0.0 1023533
12:00−4nnw445972 0.0 1024727
15:00−3nnw455766 0.0 1025832
18:00−3n346389 0.0 1025534
21:00−4nne226661 0.0 1027259
2 march, tue
tue200:00−4wnw117013 0.0 1026111
03:00−4wsw23756 0.0 102670
06:00−4wsw34830 0.0 102584
09:00−2wsw6108427 0.0 1023546
12:00+2wsw8127199 0.0 10201136
15:00+3wsw9146299 0.0 10171265
18:00+1wsw61374100 0.1 1014903
21:000wsw91598100 1.6 1012757
3 march, wed
wed300:00+1w81297100 0.9 1009593
03:00+1wnw61181100 1.1 1009642
06:00−1wnw6128997 0.0 1010696
09:000nw7107798 0.1 10121031
12:00+1nw7973100 0.1 10131112
15:00+1nw71070100 0.1 10131219
18:000nw5107799 0.1 1015614
21:00−2nw6107978 0.1 1017647